Home   Weather   Phnom Penh   Past weeks
Flag for Cambodia

Past Weather in Phnom Penh, Cambodia — Yesterday and Last 2 Weeks

Now
82 °F

Passing clouds.


Feels Like: 91 °F
Forecast: 92 / 80 °F
Wind: 7 mph from South

Location: Phnom-Penh / Pochentong

Current Time: Aug 21, 2019 at 12:28:55 am

Latest Report: Aug 20, 2019 at 11:30 pm


Visibility: 6 mi

Pressure: 29.74 "Hg

Humidity: 84%

Dew Point: 77 °F

Location of Phnom PenhLocation

Past Weather in Phnom Penh — Graph

°F

Phnom Penh Temperature Yesterday

Maximum temperature yesterday: 93 °F (at 11:30 am)
Minimum temperature yesterday: 77 °F (at 2:30 pm)
Average temperature yesterday: 85 °F

High & Low Weather Summary for the Past Weeks

 TemperatureHumidityPressure
High97 °F (Aug 19, 4:00 pm)100% (Aug 6, 8:30 pm)29.86 "Hg (Aug 6, 8:30 pm)
Low75 °F (Aug 8, 3:00 pm)21% (Aug 6, 3:00 am)29.53 "Hg (Aug 9, 2:30 pm)
Average84 °F79%29.71 "Hg
* Reported Aug 5 11:00 pm — Aug 20 11:00 pm, Phnom Penh. Weather by CustomWeather, © 2019

Note: Actual official high and low records may vary slightly from our data, if they occured in-between our weather recording intervals... More about our weather records

Advertising

Phnom Penh Weather History for the Previous 24 Hours

Scroll right to see more
 ConditionsComfort  
Time TempWeatherWind HumidityBarometerVisibility
11:00 pm
Tue, Aug 20
82 °FPassing clouds.6 mph84%29.74 "Hg6 mi
10:30 pm82 °FPassing clouds.5 mph84%29.74 "Hg6 mi
9:00 pm84 °FPassing clouds.7 mph79%29.71 "Hg6 mi
8:30 pm84 °FPassing clouds.8 mph79%29.71 "Hg6 mi
8:00 pm84 °FPassing clouds.10 mph79%29.71 "Hg6 mi
7:30 pm84 °FPassing clouds.12 mph79%29.68 "HgN/A
6:30 pm84 °FPartly cloudy.6 mph84%29.65 "HgN/A
6:00 pm82 °FBroken clouds.7 mph84%29.65 "HgN/A
5:30 pm84 °FBroken clouds.7 mph79%29.65 "HgN/A
5:00 pm84 °FBroken clouds.7 mph79%29.65 "HgN/A
4:30 pm84 °FBroken clouds.7 mph84%29.65 "HgN/A
3:30 pm79 °FBroken clouds.5 mph100%29.62 "HgN/A
3:00 pm79 °FBroken clouds.5 mph100%29.65 "Hg6 mi
2:30 pm77 °FThunderstorms. Partly sunny.5 mph100%29.65 "Hg3 mi
2:00 pm84 °FThunderstorms. Broken clouds.24 mph70%29.65 "Hg2 mi
1:30 pm93 °FScattered clouds.3 mph53%29.68 "HgN/A
1:00 pm93 °FScattered clouds.3 mph53%29.68 "HgN/A
12:30 pm93 °FScattered clouds.7 mph53%29.71 "HgN/A
12:00 pm91 °FScattered clouds.8 mph59%29.71 "HgN/A
11:30 am93 °FScattered clouds.7 mph59%29.71 "HgN/A
11:00 am91 °FScattered clouds.5 mph59%29.74 "HgN/A
10:30 am90 °FPassing clouds.6 mph63%29.74 "HgN/A
10:00 am90 °FPassing clouds.7 mph63%29.74 "HgN/A
9:30 am88 °FPassing clouds.7 mph66%29.74 "HgN/A
8:30 am86 °FPassing clouds.5 mph70%29.74 "HgN/A
8:00 am84 °FPassing clouds.5 mph84%29.74 "HgN/A
7:30 am82 °FPassing clouds.5 mph84%29.74 "HgN/A
7:00 am82 °FPassing clouds.6 mph84%29.71 "HgN/A
6:30 am81 °FScattered clouds.5 mph89%29.71 "HgN/A
6:00 am81 °FScattered clouds.3 mph89%29.71 "HgN/A
5:30 am81 °FPassing clouds.3 mph89%29.71 "HgN/A
5:00 am81 °FPassing clouds.2 mph89%29.71 "HgN/A
4:30 am81 °FPassing clouds.6 mph89%29.68 "HgN/A
4:00 am81 °FPassing clouds.8 mph89%29.68 "HgN/A
2:30 am82 °FPassing clouds.7 mph74%29.71 "HgN/A
2:00 am82 °FPassing clouds.7 mph74%29.71 "HgN/A
1:30 am82 °FPassing clouds.7 mph74%29.71 "HgN/A
1:00 am84 °FPassing clouds.8 mph66%29.74 "HgN/A
12:30 am84 °FPassing clouds.8 mph70%29.74 "HgN/A
12:00 am84 °FPassing clouds.9 mph70%29.74 "HgN/A
Weather by CustomWeather, © 2019

See weather overview